SBBRSBCF

Guest
Details From SBBR - Brasilia Presidente Juscelino Kubitsch
To SBCF - Tancredo Neves
Flight Number -
Tags decoded
Created
Modified
Stats Distance 319 nm / 592 km
Max Altitude 0 ft / 0 m
Waypoints 2
Social Downloads 0
Likes 0
Share VATSIM

Download

Looking for another format? Having issues loading an existing format? Contact us
Advertisement - Login to hide

Notes

Requested: SBBR MUGIS UZ35 MEBLU SBCF Unmatched points: MUGIS UZ35 MEBLU

Route

SBBR SBCF

ID Type Via Altitude Latitude Longitude Leg Dist Tot Dist Heading (true) Name
O SBBR APT - 0 ft / 0 m -15.87110˚ -47.91863˚ - 0 nm - Brasilia Presidente Juscelino Kubitsch
O SBCF APT - 0 ft / 0 m -19.63376˚ -43.96885˚ 319 nm 319 nm 136° / 134° Tancredo Neves

Altitude Profile

Advertisement - Login to hide

Weather


0- 5 10 15 20 25 30 35+ Temperature / ° C

Clouds and Precipitation
Forecast for 2018-05-23 18:00 UTC. Updated 5 hours ago

Ground ~20,000 ft ~40,000 ft Winds

SBBR

Details ICAO SBBR (BSB)
Name Brasilia Presidente Juscelino Kubitsch
Region Brazil
Timezone America/Sao_Paulo (UTC-3.0)
Stats Elevation 3,479 ft / 1,060 m (AMSL)
Location -15.871101° -47.918626°
Runways 2
Magnetic Variation 21.594° W

METAR

SBBR 232200Z 00000KT CAVOK 19/15 Q1022

Decode

TAF

TAF SBBR 231600Z 2318/2418 09005KT 9999 FEW030 TN12/2408Z TX26/2417Z PROB30 2318/2321 SCT030 BECMG BECMG 2400/2402 CAVOK BECMG 2413/2415 09005KT 9999 FEW030 BECMG 2415/2417 12006KT SCT040 RMK PDS

Decode

Departure Runways

ID Width Length Bearing (true) Bearing (mag) Surface Threshold Offset Overrun Length
11L 148 ft / 45 m 10,493 ft / 3,198 m 86.35° 107.94° Asphalt 0 ft / 0 m 200 ft / 61 m
11R 148 ft / 45 m 10,839 ft / 3,304 m 86.00° 107.59° Asphalt 2,635 ft / 803 m 200 ft / 61 m
29L 148 ft / 45 m 10,839 ft / 3,304 m 265.99° 287.58° Asphalt 0 ft / 0 m 200 ft / 61 m
29R 148 ft / 45 m 10,493 ft / 3,198 m 266.34° 287.93° Asphalt 0 ft / 0 m 200 ft / 61 m

SBCF

Details ICAO SBCF (CNF)
Name Tancredo Neves
Region Brazil
Timezone America/Sao_Paulo (UTC-3.0)
Stats Elevation 2,715 ft / 828 m (AMSL)
Location -19.633758° -43.968854°
Runways 1
Magnetic Variation 22.844° W

METAR

SBCF 232200Z 07010KT CAVOK 21/14 Q1022

Decode

TAF

TAF SBCF 231600Z 2318/2418 10006KT CAVOK TX26/2318Z TN13/2409Z BECMG 2322/2324 15003KT BECMG 2408/2410 10005KT PROB40 2415/2418 9999 SCT030 RMK PDS

Decode

Destination Runways

ID Width Length Bearing (true) Bearing (mag) Surface Threshold Offset Overrun Length
16 148 ft / 45 m 9,872 ft / 3,009 m 138.97° 161.81° Asphalt 0 ft / 0 m 203 ft / 62 m
34 148 ft / 45 m 9,872 ft / 3,009 m 318.96° 341.80° Asphalt 0 ft / 0 m 203 ft / 62 m

Approach Navaids

Runway Type Ident Frequency Range Bearing (true) Bearing (mag) Slope Elevation
16 Localiser ICF 109.70 MHz 18 nm / 33 km 138.90° 161.75° - 2,716 ft / 828 m (AMSL)
16 Glidescope ICF 109.70 MHz 10 nm / 19 km 138.96° 161.81° 3.00° 2,716 ft / 828 m (AMSL)

Popular Alternatives